| time (UTC) | temp F | wind direction | speed MPH | gust MPH | rain 1hr in | rain 24hr in | rain mn in | humidity % | barometer mb |
| 20260505174609 | 83 | 0 | 0.0 | 8.0 | 0.00 | 0.00 | 0.00 | 68 | 1005.2 |
| 20260505173054 | 82 | 0 | 4.0 | 14.0 | 0.00 | 0.00 | 0.00 | 69 | 1005.3 |
| 20260505171558 | 80 | 189 | 2.0 | 15.0 | 0.00 | 0.00 | 0.00 | 70 | 1005.3 |
| 20260505170058 | 80 | 0 | 2.0 | 15.0 | 0.00 | 0.00 | 0.00 | 71 | 1005.2 |
| 20260505164557 | 80 | 0 | 2.0 | 12.0 | 0.00 | 0.00 | 0.00 | 71 | 1005.3 |
| 20260505163053 | 79 | 215 | 6.0 | 16.0 | 0.00 | 0.00 | 0.00 | 71 | 1005.1 |
| 20260505161621 | 78 | 0 | 3.0 | 16.0 | 0.00 | 0.00 | 0.00 | 74 | 1004.8 |
| 20260505153053 | 75 | 233 | 2.0 | 13.0 | 0.00 | 0.00 | 0.00 | 78 | 1005.0 |
| 20260505151606 | 74 | 221 | 3.0 | 15.0 | 0.00 | 0.00 | 0.00 | 79 | 1005.0 |
| 20260505124555 | 69 | 209 | 4.0 | 15.0 | 0.00 | 0.00 | 0.00 | 87 | 1004.3 |
| 20260505123054 | 69 | 228 | 2.0 | 15.0 | 0.00 | 0.00 | 0.00 | 87 | 1004.1 |
| 20260505121553 | 69 | 0 | 2.0 | 14.0 | 0.00 | 0.00 | 0.00 | 86 | 1004.0 |
| 20260505120110 | 69 | 0 | 1.0 | 10.0 | 0.00 | 0.00 | 0.00 | 86 | 1004.0 |
| 20260505114553 | 69 | 134 | 0.0 | 11.0 | 0.00 | 0.00 | 0.00 | 87 | 1003.7 |
| 20260505113052 | 69 | 164 | 3.0 | 12.0 | 0.00 | 0.00 | 0.00 | 87 | 1003.8 |
| 20260505111552 | 69 | 204 | 3.0 | 14.0 | 0.00 | 0.00 | 0.00 | 87 | 1003.7 |
| 20260505101554 | 68 | 0 | 3.0 | 14.0 | 0.00 | 0.00 | 0.00 | 87 | 1003.6 |
| 20260505100100 | 68 | 0 | 0.0 | 12.0 | 0.00 | 0.00 | 0.00 | 87 | 1003.7 |
| 20260505094556 | 68 | 0 | 2.0 | 11.0 | 0.00 | 0.00 | 0.00 | 87 | 1003.7 |
| 20260505093053 | 68 | 129 | 1.0 | 14.0 | 0.00 | 0.00 | 0.00 | 87 | 1003.9 |
| 20260505091552 | 68 | 0 | 0.0 | 8.0 | 0.00 | 0.00 | 0.00 | 87 | 1004.0 |
| 20260505090053 | 68 | 209 | 0.0 | 12.0 | 0.00 | 0.00 | 0.00 | 87 | 1004.3 |
| 20260505084554 | 69 | 0 | 0.0 | 10.0 | 0.00 | 0.00 | 0.00 | 86 | 1004.3 |
| 20260505083054 | 69 | 0 | 1.0 | 16.0 | 0.00 | 0.00 | 0.00 | 85 | 1004.3 |
| 20260505081604 | 69 | 220 | 1.0 | 12.0 | 0.00 | 0.00 | 0.00 | 84 | 1004.3 |
| 20260505080053 | 70 | 225 | 0.0 | 12.0 | 0.00 | 0.00 | 0.00 | 83 | 1004.2 |
| 20260505074558 | 70 | 212 | 0.0 | 11.0 | 0.00 | 0.00 | 0.00 | 82 | 1004.3 |
| 20260505073110 | 70 | 0 | 3.0 | 15.0 | 0.00 | 0.00 | 0.00 | 81 | 1004.6 |
| 20260505071603 | 70 | 0 | 0.0 | 19.0 | 0.00 | 0.00 | 0.00 | 80 | 1004.8 |
| 20260505070055 | 70 | 145 | 2.0 | 14.0 | 0.00 | 0.00 | 0.00 | 79 | 1005.1 |
| 20260505064556 | 70 | 0 | 0.0 | 11.0 | 0.00 | 0.00 | 0.00 | 78 | 1005.2 |
| 20260505063054 | 71 | 223 | 2.0 | 11.0 | 0.00 | 0.00 | 0.00 | 78 | 1005.4 |
| 20260505061609 | 71 | 184 | 3.0 | 15.0 | 0.00 | 0.00 | 0.00 | 77 | 1005.4 |
| 20260505054622 | 72 | 158 | 1.0 | 10.0 | 0.00 | 0.00 | 0.00 | 76 | 1005.4 |
| 20260505053108 | 72 | 0 | 2.0 | 13.0 | 0.00 | 0.00 | 0.00 | 76 | 1005.2 |
| 20260505051601 | 72 | 0 | 1.0 | 10.0 | 0.00 | 0.00 | 0.00 | 76 | 1005.2 |
| 20260505041557 | 73 | 232 | 2.0 | 15.0 | 0.00 | 0.00 | 0.00 | 73 | 1005.4 |
| 20260505040056 | 73 | 218 | 2.0 | 12.0 | 0.00 | 0.00 | 0.00 | 73 | 1005.5 |
| 20260505034554 | 74 | 179 | 1.0 | 11.0 | 0.00 | 0.00 | 0.00 | 73 | 1005.5 |
| 20260505033052 | 74 | 196 | 2.0 | 14.0 | 0.00 | 0.00 | 0.00 | 72 | 1005.6 |
| 20260505031607 | 74 | 232 | 2.0 | 15.0 | 0.00 | 0.00 | 0.00 | 72 | 1005.6 |
| 20260505030053 | 74 | 164 | 2.0 | 16.0 | 0.00 | 0.00 | 0.00 | 71 | 1005.5 |
| 20260505024552 | 74 | 188 | 1.0 | 21.0 | 0.00 | 0.00 | 0.00 | 71 | 1005.8 |
| 20260505023108 | 74 | 213 | 0.0 | 11.0 | 0.00 | 0.00 | 0.00 | 71 | 1005.7 |
| 20260505021552 | 74 | 0 | 0.0 | 11.0 | 0.00 | 0.00 | 0.00 | 71 | 1005.6 |
| 20260505020054 | 75 | 190 | 0.0 | 7.0 | 0.00 | 0.00 | 0.00 | 71 | 1005.4 |
| 20260505014601 | 75 | 0 | 1.0 | 8.0 | 0.00 | 0.00 | 0.00 | 71 | 1005.4 |
| 20260505013106 | 75 | 174 | 1.0 | 9.0 | 0.00 | 0.00 | 0.00 | 70 | 1005.4 |
| 20260505011554 | 75 | 0 | 0.0 | 10.0 | 0.00 | 0.00 | 0.00 | 70 | 1005.4 |
| 20260505010052 | 76 | 0 | 1.0 | 11.0 | 0.00 | 0.00 | 0.00 | 69 | 1005.3 |
| 20260505004557 | 76 | 144 | 2.0 | 9.0 | 0.00 | 0.00 | 0.00 | 68 | 1005.5 |
| 20260505003051 | 77 | 0 | 1.0 | 9.0 | 0.00 | 0.00 | 0.00 | 67 | 1005.5 |
| 20260505001554 | 77 | 0 | 0.0 | 9.0 | 0.00 | 0.00 | 0.00 | 67 | 1005.6 |
| 20260505000113 | 78 | 160 | 2.0 | 10.0 | 0.00 | 0.00 | 0.00 | 65 | 1005.9 |
| 20260504234554 | 79 | 190 | 2.0 | 12.0 | 0.00 | 0.00 | 0.00 | 62 | 1005.9 |
| 20260504233055 | 79 | 223 | 3.0 | 18.0 | 0.00 | 0.00 | 0.00 | 61 | 1006.0 |
| 20260504231553 | 80 | 223 | 2.0 | 12.0 | 0.00 | 0.00 | 0.00 | 61 | 1006.1 |
| 20260504230105 | 80 | 225 | 2.0 | 11.0 | 0.00 | 0.00 | 0.00 | 60 | 1006.1 |
| 20260504224552 | 80 | 120 | 2.0 | 15.0 | 0.00 | 0.00 | 0.00 | 59 | 1006.5 |
| 20260504223056 | 81 | 153 | 2.0 | 14.0 | 0.00 | 0.00 | 0.00 | 58 | 1006.4 |
| 20260504221603 | 81 | 118 | 3.0 | 17.0 | 0.00 | 0.00 | 0.00 | 58 | 1006.6 |
| 20260504220059 | 81 | 142 | 2.0 | 12.0 | 0.00 | 0.00 | 0.00 | 58 | 1006.6 |
| 20260504214558 | 81 | 219 | 3.0 | 16.0 | 0.00 | 0.00 | 0.00 | 57 | 1006.8 |
| 20260504213105 | 81 | 176 | 4.0 | 17.0 | 0.00 | 0.00 | 0.00 | 57 | 1007.0 |
| 20260504211553 | 82 | 173 | 4.0 | 20.0 | 0.00 | 0.00 | 0.00 | 56 | 1007.1 |
| 20260504210055 | 83 | 114 | 3.0 | 15.0 | 0.00 | 0.00 | 0.00 | 56 | 1007.4 |
| 20260504204600 | 83 | 217 | 4.0 | 19.0 | 0.00 | 0.00 | 0.00 | 55 | 1007.7 |
| 20260504203101 | 83 | 196 | 1.0 | 15.0 | 0.00 | 0.00 | 0.00 | 57 | 1007.9 |
| 20260504201554 | 83 | 149 | 4.0 | 17.0 | 0.00 | 0.00 | 0.00 | 54 | 1008.3 |
| 20260504200056 | 82 | 185 | 2.0 | 15.0 | 0.00 | 0.00 | 0.00 | 57 | 1008.7 |
| 20260504194553 | 81 | 150 | 4.0 | 16.0 | 0.00 | 0.00 | 0.00 | 55 | 1008.9 |
| 20260504193054 | 81 | 92 | 4.0 | 15.0 | 0.00 | 0.00 | 0.00 | 56 | 1009.1 |
| 20260504191604 | 81 | 123 | 3.0 | 13.0 | 0.00 | 0.00 | 0.00 | 57 | 1009.5 |
| 20260504184555 | 80 | 194 | 4.0 | 12.0 | 0.00 | 0.00 | 0.00 | 59 | 1009.8 |
| 20260504183059 | 79 | 0 | 4.0 | 21.0 | 0.00 | 0.00 | 0.00 | 58 | 1009.9 |
| 20260504181603 | 79 | 172 | 5.0 | 13.0 | 0.00 | 0.00 | 0.00 | 58 | 1010.2 |
| 20260504180114 | 78 | 205 | 5.0 | 13.0 | 0.00 | 0.00 | 0.00 | 60 | 1010.5 |